Location: Castillon
(43.1358°N, 0.8654°E)
Time: 19:05:01
(UTC+00:00)

Cosmos 1346 Rocket - Pass Details

Date: 24 January 2021
Orbit: 532 x 546 km, 81.2° (Epoch: 28 February)

Event Time Altitude Azimuth Distance (km) Brightness Sun altitude
Rises 18:35:10 0° 170° (S) 2,661 6.3 -17.6°
Reaches altitude 10° 18:37:24 10° 162° (SSE) 1,777 5.3 -18.0°
Enters shadow 18:39:48 29° 134° (SE) 985 3.8 -18.4°
